Location: Bethel Church
(38.0159°N, 88.7292°W)
Time: 06:20:46
(UTC+00:00)

FengYun 1-2 T - Pass Details

Date: 08 December 2021
Orbit: 846 x 881 km, 98.7° (Epoch: 16 January)

Event Time Altitude Azimuth Distance (km) Brightness Sun altitude
Rises 22:52:14 0° 155° (SSE) 3,443 7.4 -3.8°
Reaches altitude 10° 22:54:38 10° 152° (SSE) 2,504 6.7 -4.2°
Maximum altitude 23:00:06 61° 73° (ENE) 971 4.3 -5.2°
Drops below altitude 10° 23:05:34 10° 354° (N) 2,496 6.5 -6.2°
Sets 23:07:57 0° 351° (N) 3,431 7.2 -6.6°
